sat.trackr.live / text

‹ back to catalog

GSAT0212 (GALILEO 16)

NORAD 41860 · 2016-069B

PAYLOAD ACTIVE UNKNOWN

§ Identity

Operator
Country
ESA
Launch date
2016-11-17
Launch site
FRGUI
Launch vehicle
Mass (kg)
RCS (m²)
2.79

Purposes: earth_obs, nav

External: N2YO · Heavens-Above · Gunter

§ Orbital elements

Epoch: 2026-09-10T05:46:21.372960Z

Period
844.70 min
Inclination
55.5502°
Eccentricity
0.0003965
Mean motion
1.70473888 rev/d
Perigee alt
23,210.5 km
Apogee alt
23,233.9 km
Semi-major
29,600.3 km
B*
0.0000e+0
RAAN
98.7259°
Arg perigee
39.3601°
Mean anomaly
320.7650°
Rev number
6,110

§ Raw data

GSAT0212 (GALILEO 16)1 41860U 16069B   26253.24052515  .00000019  00000+0  00000+0 0  99912 41860  55.5502  98.7259 0003965  39.3601 320.7650  1.70473888 61105

JSON: /api/v1/satellites/41860 · /tle

For live sub-satellite position, see the globe view (requires WebGL).

§ Visibility from observer

Set your observer location to see the next 7 days of passes ≥ 10°. The values pass through the URL so the page stays shareable.

No JS? Fill the form by hand. The geolocation button needs JavaScript.